Temp
73 72 73 70 70 71 71 72 72 71 70 70 68 67 65 63 59 58 58 59 63 63 70 70 69 72 72 71 73 72 72 75 77 72 72 71 70 72 72 72 72 72 72 71 70 71 71 71 71 72 71 72 72 72 72 72 72 72 72 72 72 72 72 72 72 71 71 71 71 71 72 73 73 73
72 72 72 72 71 71 71 70 71 71 69 69 70 68 68 66 63 60 61 58 63 64 66 71 70 71 72 72 72 72 73 75 78 72 71 71 71 73 72 71 71 71 71 70 70 70 70 70 70 71 71 71 71 71 71 72 71 71 71 71 71 71 71 71 71 71 71 71 71 71 71 72 72 72
73 70 70 69 70 71 71 70 71 71 70 69 70 68 69 68 67 65 62 59 61 68 65 65 71 72 69 72 73 73 72 74 76 74 72 72 74 74 73 72 71 71 70 70 70 69 69 69 69 70 70 71 71 71 71 71 71 71 71 71 71 71 71 71 71 71 71 71 71 71 71 71 71 71
72 71 70 70 70 70 70 70 70 70 70 71 69 69 69 68 68 67 64 63 62 66 68 68 69 71 71 70 71 72 73 75 76 74 73 73 75 74 74 74 73 72 71 70 69 69 68 68 69 69 70 70 71 71 71 71 71 71 71 71 71 71 70 70 70 71 71 71 71 71 71 71 71 71
72 71 71 70 70 70 70 70 71 70 70 70 70 70 69 68 68 67 65 63 64 65 67 69 69 70 72 70 71 71 71 71 72 75 74 73 73 73 72 73 73 72 71 70 70 69 68 68 68 69 70 70 70 71 71 70 70 70 70 70 70 70 70 70 70 70 71 71 71 71 71 71 71 72
72 71 70 71 71 71 71 70 71 72 70 71 70 69 70 68 69 68 67 64 63 63 65 68 68 69 71 70 70 71 70 70 71 71 72 73 73 72 72 72 72 72 72 71 70 70 69 68 68 68 69 69 70 70 70 70 69 70 70 69 69 69 69 69 69 69 69 70 70 70 70 71 71 71
71 70 70 70 70 72 71 70 71 71 71 71 71 69 70 69 69 69 68 66 64 63 64 66 66 67 68 69 70 71 71 72 72 71 70 71 72 73 73 72 73 73 72 71 71 70 70 69 68 68 68 68 68 68 68 68 68 68 68 68 68 68 68 68 68 68 69 69 70 70 70 70 70 71
70 70 69 69 70 70 69 69 69 71 71 70 70 70 69 70 70 70 69 68 67 65 64 64 67 67 67 68 70 71 71 70 70 71 71 71 71 71 72 72 72 73 71 71 70 70 69 69 68 67 67 67 67 66 66 67 67 66 66 66 66 66 66 66 66 67 67 67 67 68 69 69 70 70
70 70 69 69 70 69 69 68 69 70 70 71 71 71 71 71 71 71 70 68 67 65 64 65 66 67 67 68 69 69 68 69 69 69 69 71 70 69 71 72 73 72 71 71 70 70 70 70 69 69 68 67 66 66 66 66 65 65 65 64 64 65 65 65 65 65 65 65 65 66 67 68 68 68
71 71 71 71 71 70 70 69 69 69 70 71 70 70 71 71 71 70 69 68 66 65 65 65 65 66 67 66 67 69 69 68 67 67 68 67 67 68 68 70 72 73 73 72 72 71 70 69 68 67 67 67 67 66 65 65 65 64 63 61 62 64 63 62 63 63 63 63 63 64 65 66 67 67
72 72 71 70 71 71 70 70 69 69 70 71 70 70 69 69 69 69 68 68 67 65 64 65 65 65 67 67 67 68 69 68 68 66 65 65 67 67 67 67 70 72 72 71 71 71 71 71 71 69 67 66 66 66 65 64 63 62 62 61 60 60 60 61 61 61 61 62 63 63 63 62 64 65
72 72 72 72 71 71 70 70 70 71 71 71 70 70 70 70 69 68 68 67 66 65 64 64 65 64 64 64 66 67 66 65 64 66 65 63 64 65 65 67 67 68 68 68 71 71 71 71 72 70 69 68 67 65 65 66 66 65 63 62 63 63 61 60 60 60 60 61 61 61 62 62 63 63
72 71 72 73 72 73 75 75 74 73 73 71 69 67 67 68 68 67 66 65 64 63 63 63 64 64 63 64 64 64 63 63 64 65 64 64 64 64 64 65 66 67 68 68 68 68 69 69 68 68 67 68 69 68 67 68 68 66 63 63 63 63 62 61 60 60 60 60 60 60 61 61 61 61
71 72 72 73 77 77 77 76 76 74 73 73 72 69 68 67 66 65 65 64 64 63 62 62 63 63 63 64 64 63 64 65 63 64 63 62 61 61 62 63 64 68 67 66 64 65 68 68 67 66 66 67 69 68 68 68 70 68 66 66 65 64 63 62 61 60 60 60 59 59 59 59 60 60
70 71 70 70 76 76 76 75 76 73 73 72 71 71 71 70 69 66 65 64 64 63 63 63 64 64 63 64 64 64 65 64 65 63 61 62 62 61 60 60 62 65 65 62 62 64 67 67 66 66 65 67 68 69 69 69 69 67 66 67 67 67 66 65 64 61 60 60 60 59 59 59 60 60
70 69 70 69 71 70 71 70 70 70 71 70 71 71 71 70 70 70 68 65 64 63 64 64 64 63 63 63 64 64 65 63 61 62 62 62 61 60 59 58 59 62 66 64 62 63 66 66 64 64 66 67 68 70 69 68 66 66 66 66 66 65 65 65 65 64 63 62 62 63 62 62 62 62
69 69 69 69 70 71 74 71 68 68 69 72 72 71 72 71 69 65 65 66 68 67 64 63 63 63 63 62 64 66 65 62 62 61 60 61 60 60 59 59 61 64 65 63 61 60 63 64 63 63 65 66 68 69 68 67 67 66 66 66 65 64 64 64 63 64 65 65 64 62 61 62 62 62
70 69 69 69 68 66 67 67 67 67 66 67 67 67 65 65 68 67 64 63 63 64 65 64 63 65 65 64 65 66 65 63 62 61 60 60 59 59 60 62 62 64 65 62 61 59 62 64 63 63 65 66 67 67 66 66 66 65 64 63 63 62 63 64 64 64 63 63 63 62 61 59 59 59
70 70 70 69 67 65 66 66 67 66 66 66 66 65 65 66 66 66 68 68 68 66 65 65 65 66 66 65 65 65 65 65 64 63 61 61 61 61 61 60 61 62 64 63 60 56 61 62 61 62 63 65 65 65 65 65 64 64 64 65 65 64 64 64 64 63 63 63 62 62 61 60 59 58
70 70 69 68 67 66 66 66 67 68 66 64 64 64 64 63 64 66 68 66 67 70 68 67 67 67 65 65 64 64 65 63 63 65 63 61 60 58 56 57 60 60 63 63 61 59 60 62 63 63 63 63 62 63 64 64 65 65 65 65 64 63 62 62 63 63 63 63 63 62 61 59 58 57
70 70 69 69 68 68 67 66 62 64 68 63 63 63 62 63 63 64 67 66 64 63 61 60 61 61 61 61 59 58 59 63 62 60 57 57 59 55 54 56 56 58 62 63 62 61 60 60 59 60 61 61 61 62 62 63 64 65 64 64 63 62 61 61 62 62 63 62 62 62 61 59 58 59
68 70 75 72 69 68 67 64 60 61 64 63 63 62 62 61 61 62 64 67 66 65 65 65 64 63 62 61 60 60 59 58 59 59 56 60 59 57 56 55 57 60 62 63 64 59 56 59 58 57 59 59 59 60 60 63 64 64 64 64 63 61 61 60 60 61 61 61 61 60 59 58 58 61
67 68 72 73 69 68 65 59 59 60 63 63 62 61 61 60 60 59 57 60 61 61 63 62 64 64 65 65 64 65 63 61 62 61 60 61 59 57 58 58 58 57 58 62 63 59 56 58 57 58 57 55 57 60 61 62 63 64 65 65 66 63 62 60 59 58 59 59 59 59 58 58 58 61
65 65 65 66 64 62 58 55 56 57 60 63 61 61 60 59 60 57 56 60 60 58 59 59 60 61 60 61 63 63 64 65 66 64 63 62 61 58 58 58 58 56 56 58 64 57 58 57 56 57 57 52 52 56 61 62 63 64 64 64 64 64 64 63 61 60 59 58 58 59 58 57 57 61
65 65 65 65 61 58 55 52 52 52 56 60 60 60 59 60 57 56 54 58 64 58 58 60 59 60 60 61 61 61 62 63 63 64 64 64 63 61 59 56 56 56 58 61 63 57 55 55 57 57 56 55 56 56 59 61 63 63 63 63 63 64 64 64 63 65 62 60 58 57 57 57 57 59
66 65 65 65 61 56 52 50 49 50 52 55 58 59 54 52 52 55 57 57 58 58 58 56 57 58 59 59 60 61 61 62 63 62 62 63 63 63 62 58 56 54 55 59 61 58 56 56 57 56 56 55 57 59 57 59 61 62 62 63 63 63 63 63 63 63 63 63 64 61 62 59 59 58
66 66 66 66 58 53 49 47 48 49 50 53 55 51 49 50 52 56 56 57 57 55 56 58 57 56 57 58 58 58 59 60 60 62 62 62 61 61 62 61 59 58 59 61 63 62 58 55 59 57 56 58 55 57 57 56 58 62 61 62 62 63 63 62 60 61 61 61 62 60 58 58 57 57
67 65 66 63 52 48 45 45 47 49 51 54 49 48 48 50 53 55 55 55 54 56 55 55 55 56 55 56 56 57 58 59 58 59 60 59 60 60 60 61 62 62 61 61 61 61 60 58 59 60 59 57 56 54 54 58 59 59 59 61 61 62 61 60 59 60 60 60 60 60 60 60 62 61
67 63 56 50 47 47 45 46 48 49 49 50 50 48 49 55 54 54 54 54 55 53 54 55 56 57 57 58 58 57 56 58 60 59 60 61 60 60 60 60 60 60 63 64 63 63 62 61 60 61 61 60 57 57 56 55 57 58 59 58 57 59 59 60 59 59 59 59 59 59 59 59 60 61
55 52 49 48 48 48 50 51 52 53 54 51 51 51 51 54 53 54 54 54 54 54 55 56 56 55 55 56 56 57 58 56 56 56 57 57 57 58 57 56 57 58 61 62 63 63 63 62 61 61 59 59 59 57 57 56 56 58 59 57 57 59 60 58 58 58 59 58 58 59 60 60 59 60
54 52 53 52 52 52 52 55 57 57 59 54 52 53 54 54 54 55 54 55 55 55 55 55 56 54 55 56 58 56 55 55 55 57 57 55 56 58 56 54 55 57 59 61 62 63 63 62 62 60 58 58 59 58 59 58 55 56 57 58 57 54 57 59 59 58 58 58 58 58 58 58 59 60
59 58 55 53 55 54 54 54 56 57 58 58 57 55 55 56 57 59 61 61 57 57 57 55 56 56 55 55 54 55 54 54 55 57 56 57 55 56 56 53 54 56 57 59 60 61 64 63 62 61 60 59 57 59 58 57 56 56 56 58 58 59 60 59 58 58 60 58 56 56 57 57 58 58
59 57 57 57 57 56 56 56 56 56 56 56 58 59 58 57 57 56 55 56 55 56 56 55 55 55 54 53 54 54 55 55 54 56 54 55 56 56 54 53 54 54 54 56 57 58 59 60 62 62 61 60 59 58 57 55 56 57 56 57 58 58 59 60 60 60 61 58 56 56 55 57 58 58
59 59 58 58 57 57 56 56 56 57 58 58 57 58 59 58 58 57 56 56 57 57 56 54 54 53 55 52 52 53 54 53 54 53 56 54 55 53 52 52 53 54 53 54 55 57 58 59 59 58 59 60 61 59 58 56 55 56 57 58 58 57 59 60 60 60 59 56 55 54 55 55 56 57
60 59 58 58 57 58 58 58 58 59 59 59 59 59 59 59 59 58 57 55 55 55 55 54 54 54 53 52 53 53 53 56 53 52 54 54 55 53 53 52 53 53 53 53 56 57 56 57 57 56 56 55 56 57 60 60 56 56 57 57 57 57 57 59 59 59 58 57 56 53 54 55 55 57
60 59 59 58 58 59 59 59 60 62 62 61 62 62 61 60 59 59 57 55 56 55 54 54 54 53 53 54 53 54 53 54 53 53 53 52 52 53 52 52 53 53 53 53 55 57 58 58 56 54 52 52 51 52 55 60 60 57 55 55 56 56 57 58 59 58 57 56 56 53 51 51 52 55
60 59 60 59 60 60 60 61 61 61 62 61 60 59 58 59 58 56 54 54 54 54 54 54 54 54 54 53 53 53 53 54 53 54 53 52 53 52 51 53 53 54 53 54 55 57 57 56 55 53 52 51 50 49 53 58 57 58 56 55 55 57 57 57 56 55 56 56 55 54 52 51 51 53
60 59 59 58 59 58 59 60 60 59 58 59 59 59 59 57 58 58 55 54 55 55 55 53 55 54 53 54 52 53 52 53 51 51 51 52 52 52 50 51 53 53 53 54 55 56 56 55 55 54 51 51 50 50 51 55 56 57 58 56 54 55 57 55 53 53 54 56 54 54 53 51 52 53
59 59 59 59 59 58 59 59 59 58 58 58 58 58 57 58 58 56 55 54 54 53 53 53 54 54 53 52 53 53 52 50 50 50 53 52 52 50 51 53 53 54 53 53 54 54 55 55 55 54 54 52 51 51 52 52 53 58 58 55 54 54 54 53 51 53 53 52 53 54 54 55 56 58
58 58 58 57 57 58 58 58 57 57 57 58 57 58 56 55 54 56 54 53 52 53 54 54 54 52 51 52 52 52 51 51 51 51 52 51 51 53 53 54 53 53 51 52 53 54 54 55 55 54 55 55 55 56 55 56 56 57 57 57 53 54 54 52 51 51 51 52 52 50 50 52 50 53
58 58 57 58 57 57 57 57 58 57 58 58 58 57 56 54 54 53 53 53 54 52 54 51 51 51 52 51 53 52 51 51 51 52 53 51 54 54 55 55 52 51 51 51 52 52 54 55 59 61 63 59 57 56 54 52 52 53 54 56 54 54 53 54 53 51 51 52 50 48 48 48 48 49
57 58 57 58 58 57 57 56 56 57 56 56 55 56 56 54 54 57 55 58 55 54 51 52 51 52 52 52 51 52 51 50 50 50 52 52 52 53 54 52 51 52 50 52 53 54 56 57 59 59 58 56 55 52 50 51 50 52 54 55 56 55 54 54 55 55 53 51 49 47 46 47 48 47
59 58 58 58 57 57 57 57 56 57 55 56 56 54 54 55 53 53 52 52 51 52 51 51 51 52 51 50 51 52 51 51 51 52 53 53 52 51 51 52 51 52 52 53 54 54 55 57 57 56 56 53 53 54 51 51 51 51 53 53 53 54 55 56 55 55 55 56 55 51 49 47 45 42
59 59 59 57 58 57 57 56 56 55 56 56 55 54 54 52 52 52 51 50 51 52 52 51 51 50 51 52 52 51 51 51 52 52 53 53 51 51 52 52 52 53 53 53 53 54 55 56 56 55 54 52 52 52 51 52 51 52 52 52 52 52 51 54 55 55 55 55 54 54 53 53 52 51
60 59 59 58 57 58 57 58 58 57 57 56 54 54 53 53 53 54 56 56 53 51 52 52 52 53 51 52 52 51 51 53 52 52 51 51 52 53 52 52 53 53 53 53 51 53 55 54 55 55 53 53 54 54 54 54 53 52 52 51 50 50 50 51 50 50 50 50 52 53 53 53 53 52
MSLP
1017.83 1017.95 1018.11 1018.27 1018.35 1018.39 1018.39 1018.51 1018.63 1018.79 1018.91 1019.03 1019.23 1019.43 1020.07 1020.51 1021.35 1021.91 1021.91 1021.47 1021.19 1020.19 1019.79 1020.35 1019.35 1018.71 1018.79 1018.87 1018.71 1018.71 1018.63 1018.43 1018.39 1018.51 1018.55 1018.63 1018.67 1018.63 1018.63 1018.63 1018.63 1018.67 1018.67 1018.71 1018.75 1018.79 1018.87 1018.91 1018.99 1019.03 1019.03 1019.03 1018.99 1018.99 1018.99 1018.99 1019.03 1019.03 1019.03 1018.95 1018.87 1018.83 1018.83 1018.87 1018.87 1018.87 1018.87 1018.79 1018.75 1018.75 1018.71 1018.67 1018.63 1018.55
1017.71 1017.87 1017.99 1018.07 1018.35 1018.23 1018.35 1018.47 1018.47 1018.59 1018.79 1018.91 1019.07 1019.27 1019.47 1019.79 1020.75 1021.15 1021.75 1021.55 1020.59 1020.35 1019.63 1019.51 1019.67 1018.87 1018.75 1018.63 1018.71 1018.59 1018.51 1018.35 1018.27 1018.31 1018.39 1018.39 1018.35 1018.27 1018.27 1018.31 1018.31 1018.35 1018.31 1018.31 1018.39 1018.47 1018.55 1018.63 1018.67 1018.71 1018.75 1018.71 1018.71 1018.71 1018.71 1018.71 1018.71 1018.71 1018.71 1018.67 1018.59 1018.55 1018.51 1018.51 1018.59 1018.59 1018.59 1018.55 1018.51 1018.47 1018.43 1018.39 1018.39 1018.35
1017.67 1017.87 1018.03 1017.99 1018.19 1018.11 1018.27 1018.35 1018.39 1018.43 1018.63 1018.79 1018.83 1019.07 1019.27 1019.63 1019.95 1020.51 1020.91 1021.63 1020.31 1019.63 1020.11 1019.43 1018.95 1019.07 1018.83 1018.63 1018.67 1018.67 1018.59 1018.43 1018.27 1018.23 1018.23 1018.15 1018.07 1017.95 1017.95 1017.87 1017.87 1017.95 1017.95 1017.95 1017.95 1018.07 1018.15 1018.23 1018.31 1018.35 1018.39 1018.39 1018.39 1018.43 1018.43 1018.43 1018.43 1018.39 1018.35 1018.31 1018.31 1018.31 1018.27 1018.23 1018.23 1018.27 1018.27 1018.23 1018.19 1018.19 1018.15 1018.11 1018.07 1018.07
1017.63 1017.75 1017.99 1018.03 1018.11 1018.03 1018.11 1018.31 1018.39 1018.43 1018.47 1018.55 1018.79 1018.99 1019.23 1019.43 1019.55 1019.87 1020.43 1020.87 1020.75 1019.51 1019.43 1019.27 1018.95 1018.71 1018.75 1018.63 1018.83 1018.75 1018.55 1018.23 1018.11 1018.07 1018.03 1017.95 1017.87 1017.87 1017.83 1017.71 1017.67 1017.59 1017.55 1017.59 1017.67 1017.75 1017.79 1017.83 1017.87 1017.87 1017.91 1017.99 1018.03 1018.11 1018.07 1018.03 1018.03 1017.99 1017.95 1017.95 1017.95 1017.99 1017.99 1017.95 1017.91 1017.87 1017.87 1017.83 1017.83 1017.79 1017.79 1017.79 1017.75 1017.71
1017.63 1017.79 1017.95 1017.95 1017.87 1017.79 1018.03 1018.11 1018.15 1018.31 1018.39 1018.47 1018.59 1018.75 1018.99 1019.27 1019.35 1019.67 1020.15 1020.63 1020.51 1019.67 1018.91 1018.99 1018.95 1018.63 1018.59 1018.75 1018.39 1018.55 1018.43 1018.31 1018.07 1017.91 1017.91 1017.87 1017.91 1017.83 1017.75 1017.59 1017.47 1017.39 1017.31 1017.31 1017.35 1017.43 1017.51 1017.51 1017.51 1017.51 1017.51 1017.59 1017.63 1017.71 1017.71 1017.67 1017.67 1017.63 1017.63 1017.59 1017.55 1017.59 1017.59 1017.59 1017.55 1017.51 1017.47 1017.39 1017.39 1017.39 1017.39 1017.39 1017.35 1017.35
1017.59 1017.71 1017.91 1017.91 1017.75 1017.71 1017.87 1017.95 1018.07 1018.11 1018.31 1018.43 1018.63 1018.75 1018.87 1019.15 1019.23 1019.15 1019.75 1019.99 1020.19 1020.23 1019.35 1019.15 1018.71 1018.75 1018.43 1018.83 1018.11 1018.39 1018.35 1018.15 1017.91 1017.95 1017.83 1017.67 1017.67 1017.71 1017.63 1017.55 1017.39 1017.19 1017.11 1017.07 1017.11 1017.15 1017.23 1017.23 1017.19 1017.15 1017.19 1017.23 1017.27 1017.23 1017.23 1017.19 1017.19 1017.19 1017.23 1017.19 1017.19 1017.15 1017.11 1017.11 1017.15 1017.11 1017.07 1017.03 1016.95 1016.95 1016.95 1016.95 1016.95 1016.91
1017.43 1017.63 1017.71 1017.75 1017.59 1017.59 1017.83 1017.87 1017.83 1017.87 1018.11 1018.23 1018.47 1018.67 1018.71 1018.99 1019.03 1018.99 1019.11 1019.59 1019.99 1019.99 1019.71 1019.03 1019.03 1018.79 1018.51 1018.55 1018.23 1017.95 1017.87 1017.71 1017.63 1017.75 1017.67 1017.63 1017.47 1017.35 1017.31 1017.31 1017.15 1017.03 1016.99 1016.95 1016.91 1016.91 1016.95 1016.91 1016.91 1016.83 1016.79 1016.79 1016.79 1016.75 1016.71 1016.67 1016.71 1016.75 1016.79 1016.79 1016.75 1016.75 1016.71 1016.67 1016.63 1016.63 1016.63 1016.63 1016.59 1016.55 1016.51 1016.51 1016.55 1016.51
1017.27 1017.39 1017.51 1017.51 1017.43 1017.47 1017.71 1017.75 1017.71 1017.71 1017.83 1018.03 1018.15 1018.35 1018.43 1018.51 1018.67 1018.63 1018.75 1018.83 1019.19 1019.35 1019.59 1019.11 1018.91 1018.51 1018.55 1018.23 1017.83 1017.71 1017.59 1017.55 1017.47 1017.39 1017.27 1017.19 1017.23 1017.15 1017.07 1017.07 1017.03 1016.83 1016.71 1016.71 1016.71 1016.71 1016.67 1016.63 1016.55 1016.51 1016.47 1016.47 1016.43 1016.39 1016.35 1016.27 1016.27 1016.27 1016.31 1016.31 1016.31 1016.27 1016.23 1016.23 1016.23 1016.19 1016.15 1016.19 1016.19 1016.15 1016.11 1016.11 1016.11 1016.11
1016.91 1017.11 1017.27 1017.31 1017.35 1017.39 1017.63 1017.63 1017.63 1017.63 1017.75 1017.79 1017.91 1018.11 1018.15 1018.27 1018.27 1018.35 1018.43 1018.59 1018.75 1019.07 1019.31 1019.11 1018.63 1018.43 1018.35 1017.95 1017.71 1017.59 1017.83 1017.51 1017.31 1017.15 1017.23 1017.07 1016.99 1016.91 1016.79 1016.75 1016.67 1016.59 1016.47 1016.43 1016.39 1016.35 1016.31 1016.27 1016.19 1016.11 1016.07 1016.07 1016.07 1016.03 1015.95 1015.91 1015.91 1015.87 1015.83 1015.75 1015.75 1015.79 1015.79 1015.83 1015.83 1015.83 1015.79 1015.71 1015.67 1015.67 1015.67 1015.67 1015.67 1015.67
1016.43 1016.71 1016.91 1017.03 1017.15 1017.27 1017.51 1017.55 1017.43 1017.43 1017.47 1017.59 1017.83 1017.95 1017.95 1017.91 1017.99 1018.19 1018.35 1018.43 1018.71 1018.91 1019.03 1019.03 1018.87 1018.43 1018.47 1018.11 1017.75 1017.39 1017.47 1017.63 1017.63 1017.39 1017.11 1016.99 1016.87 1016.87 1016.87 1016.71 1016.51 1016.31 1016.27 1016.27 1016.19 1016.15 1016.11 1015.99 1015.91 1015.87 1015.83 1015.75 1015.71 1015.63 1015.63 1015.59 1015.55 1015.51 1015.47 1015.43 1015.39 1015.43 1015.43 1015.47 1015.47 1015.47 1015.39 1015.35 1015.27 1015.15 1015.15 1015.19 1015.23 1015.19
1016.03 1016.19 1016.43 1016.67 1016.79 1016.95 1017.07 1017.27 1017.31 1017.23 1017.23 1017.35 1017.51 1017.63 1017.71 1017.83 1017.99 1018.19 1018.31 1018.43 1018.63 1018.79 1018.83 1018.71 1018.55 1018.43 1017.91 1017.91 1017.99 1017.27 1017.11 1017.15 1017.27 1017.43 1017.47 1017.39 1016.91 1016.79 1016.79 1016.79 1016.27 1016.03 1015.95 1015.79 1015.79 1015.79 1015.75 1015.67 1015.59 1015.47 1015.43 1015.43 1015.39 1015.27 1015.19 1015.15 1015.15 1015.19 1015.19 1015.19 1015.15 1015.15 1015.15 1015.07 1015.03 1014.99 1014.95 1014.87 1014.75 1014.75 1014.71 1014.67 1014.67 1014.63
1015.79 1015.75 1015.87 1016.03 1016.23 1016.39 1016.55 1016.71 1016.83 1016.83 1017.03 1017.03 1017.27 1017.31 1017.51 1017.71 1017.91 1018.07 1018.15 1018.31 1018.43 1018.59 1018.59 1018.55 1018.35 1018.19 1018.11 1017.79 1017.47 1017.23 1017.19 1017.35 1017.27 1017.19 1017.31 1017.51 1017.19 1016.83 1016.55 1016.43 1016.39 1016.03 1015.87 1015.95 1015.79 1015.59 1015.51 1015.39 1015.23 1015.11 1015.07 1015.03 1014.95 1014.91 1014.87 1014.79 1014.75 1014.71 1014.71 1014.71 1014.67 1014.63 1014.63 1014.63 1014.59 1014.51 1014.39 1014.35 1014.35 1014.31 1014.23 1014.11 1014.07 1014.03
1015.79 1015.71 1015.59 1015.59 1015.79 1015.91 1016.03 1016.15 1016.31 1016.39 1016.43 1016.75 1017.15 1017.23 1017.35 1017.63 1017.83 1017.95 1018.07 1018.15 1018.27 1018.31 1018.39 1018.39 1018.19 1018.23 1018.15 1017.91 1017.83 1017.79 1017.71 1017.67 1017.51 1016.95 1016.87 1017.07 1016.87 1016.71 1016.67 1016.27 1015.99 1015.91 1015.95 1015.79 1015.71 1015.71 1015.51 1015.39 1015.27 1015.19 1015.11 1014.95 1014.75 1014.67 1014.59 1014.51 1014.43 1014.35 1014.31 1014.27 1014.27 1014.23 1014.19 1014.15 1014.07 1014.03 1013.99 1013.95 1013.87 1013.83 1013.83 1013.83 1013.79 1013.71
1015.67 1015.67 1015.59 1015.47 1015.47 1015.59 1015.71 1015.87 1016.03 1016.15 1016.19 1016.27 1016.55 1016.83 1017.11 1017.39 1017.67 1017.79 1017.91 1017.99 1017.99 1018.11 1018.31 1018.27 1018.19 1018.23 1018.07 1017.79 1017.67 1017.63 1017.31 1016.99 1016.87 1016.99 1016.99 1017.19 1016.87 1016.79 1016.79 1016.51 1016.07 1015.63 1015.67 1015.79 1015.79 1015.59 1015.31 1015.31 1015.19 1015.15 1015.11 1014.83 1014.67 1014.55 1014.43 1014.35 1014.19 1014.03 1013.91 1013.79 1013.71 1013.71 1013.67 1013.63 1013.59 1013.51 1013.47 1013.55 1013.55 1013.47 1013.35 1013.23 1013.15 1013.07
1015.51 1015.47 1015.47 1015.39 1015.35 1015.43 1015.59 1015.67 1015.79 1015.95 1016.07 1016.15 1016.19 1016.23 1016.31 1016.47 1016.79 1017.27 1017.47 1017.47 1017.47 1017.79 1017.91 1017.75 1017.75 1017.79 1017.75 1017.51 1017.31 1017.23 1017.07 1016.91 1016.91 1016.91 1016.91 1016.99 1016.99 1017.07 1017.15 1017.11 1016.15 1015.51 1015.47 1015.71 1015.79 1015.59 1015.19 1015.07 1015.15 1015.03 1014.95 1014.71 1014.47 1014.19 1014.03 1013.87 1013.75 1013.67 1013.55 1013.43 1013.27 1013.15 1013.11 1013.07 1013.07 1013.19 1013.27 1013.15 1013.03 1012.91 1012.83 1012.71 1012.59 1012.47
1015.27 1015.35 1015.43 1015.47 1015.43 1015.47 1015.59 1015.71 1015.91 1016.07 1016.07 1016.07 1016.07 1016.11 1016.15 1016.11 1016.03 1016.07 1016.55 1017.03 1017.39 1017.43 1017.55 1017.55 1017.43 1017.43 1017.43 1017.35 1017.19 1017.11 1017.03 1016.91 1016.83 1016.75 1016.83 1016.91 1016.95 1016.95 1016.91 1016.79 1016.71 1015.63 1015.31 1015.59 1015.71 1015.35 1014.91 1014.75 1014.87 1014.87 1014.55 1014.27 1013.99 1013.67 1013.43 1013.35 1013.27 1013.23 1013.15 1013.03 1012.95 1012.83 1012.79 1012.83 1012.87 1012.83 1012.79 1012.71 1012.59 1012.43 1012.27 1012.11 1011.99 1011.87
1015.03 1015.19 1015.39 1015.47 1015.47 1015.43 1015.47 1015.63 1015.75 1015.83 1015.83 1015.71 1015.71 1015.79 1015.95 1016.07 1016.23 1016.39 1016.43 1016.43 1016.55 1016.63 1016.95 1017.15 1017.15 1017.07 1017.07 1017.19 1016.87 1016.63 1016.59 1016.43 1016.67 1016.63 1016.71 1016.63 1016.55 1016.51 1016.59 1016.43 1016.11 1015.63 1015.31 1015.47 1015.47 1015.31 1014.71 1014.59 1014.63 1014.63 1014.15 1013.91 1013.59 1013.27 1013.07 1012.99 1012.91 1012.83 1012.71 1012.71 1012.79 1012.79 1012.75 1012.67 1012.55 1012.43 1012.27 1012.11 1011.95 1011.83 1011.71 1011.55 1011.43 1011.31
1014.75 1014.91 1015.11 1015.31 1015.55 1015.59 1015.51 1015.47 1015.51 1015.55 1015.67 1015.79 1015.95 1016.07 1016.23 1016.31 1016.23 1016.23 1016.23 1016.35 1016.47 1016.55 1016.59 1016.67 1016.79 1016.39 1016.47 1016.67 1016.35 1016.07 1016.07 1016.35 1016.47 1016.55 1016.55 1016.39 1016.39 1016.35 1016.23 1015.83 1015.71 1015.27 1015.11 1015.39 1015.27 1015.23 1014.67 1014.35 1014.35 1014.23 1013.75 1013.43 1013.23 1012.99 1012.79 1012.67 1012.63 1012.59 1012.63 1012.59 1012.51 1012.43 1012.39 1012.27 1012.15 1011.99 1011.87 1011.67 1011.51 1011.31 1011.15 1011.07 1010.95 1010.83
1014.35 1014.55 1014.75 1014.95 1015.23 1015.39 1015.35 1015.27 1015.27 1015.43 1015.51 1015.67 1015.87 1016.07 1016.15 1016.11 1016.07 1016.11 1016.15 1016.23 1016.27 1016.39 1016.31 1016.31 1016.23 1016.07 1015.91 1015.95 1015.95 1015.87 1015.83 1015.91 1015.95 1015.99 1016.07 1015.99 1015.91 1015.79 1015.63 1015.59 1015.39 1015.15 1014.79 1014.79 1015.19 1015.35 1014.51 1014.07 1014.07 1013.79 1013.47 1013.19 1013.07 1012.91 1012.79 1012.71 1012.63 1012.51 1012.39 1012.27 1012.15 1012.03 1011.91 1011.75 1011.59 1011.43 1011.31 1011.15 1010.99 1010.83 1010.71 1010.59 1010.51 1010.39
1013.99 1014.19 1014.39 1014.59 1014.83 1014.91 1014.95 1014.95 1014.99 1015.07 1015.31 1015.63 1015.87 1016.03 1016.03 1016.11 1016.11 1016.11 1015.95 1015.87 1015.83 1015.75 1015.71 1015.71 1015.71 1015.75 1015.83 1015.83 1015.83 1015.79 1015.67 1015.67 1015.63 1015.63 1015.63 1015.67 1015.71 1015.83 1015.95 1015.87 1015.35 1015.31 1014.47 1014.39 1014.71 1014.79 1014.39 1013.91 1013.87 1013.59 1013.31 1013.19 1013.15 1012.87 1012.71 1012.51 1012.35 1012.23 1012.07 1011.95 1011.87 1011.71 1011.55 1011.39 1011.19 1011.03 1010.87 1010.71 1010.51 1010.35 1010.19 1010.07 1009.95 1009.79
1013.63 1013.79 1013.91 1014.11 1014.35 1014.55 1014.71 1014.71 1014.91 1015.11 1015.27 1015.59 1015.87 1016.03 1016.15 1016.19 1016.23 1016.15 1015.91 1015.71 1015.59 1015.59 1015.67 1015.71 1015.71 1015.67 1015.59 1015.59 1015.59 1015.59 1015.47 1015.43 1015.43 1015.67 1015.91 1015.87 1015.71 1015.99 1016.03 1015.67 1015.47 1015.07 1014.51 1014.11 1014.15 1014.27 1014.27 1013.91 1013.87 1013.75 1013.39 1013.19 1013.07 1012.87 1012.63 1012.39 1012.19 1011.99 1011.79 1011.67 1011.55 1011.39 1011.19 1010.95 1010.79 1010.59 1010.43 1010.23 1010.03 1009.83 1009.63 1009.51 1009.39 1009.15
1013.39 1013.47 1013.55 1013.75 1014.07 1014.39 1014.55 1014.63 1014.83 1015.07 1015.31 1015.67 1015.83 1016.07 1016.27 1016.35 1016.39 1016.31 1016.11 1015.95 1015.79 1015.67 1015.55 1015.51 1015.51 1015.51 1015.47 1015.43 1015.39 1015.35 1015.31 1015.35 1015.43 1015.67 1015.87 1015.43 1015.47 1015.71 1015.71 1015.67 1015.27 1014.83 1014.51 1014.23 1013.99 1014.35 1014.23 1013.95 1013.83 1013.63 1013.15 1012.99 1012.75 1012.63 1012.47 1012.19 1011.87 1011.67 1011.51 1011.31 1011.19 1010.99 1010.75 1010.63 1010.43 1010.19 1009.95 1009.71 1009.47 1009.27 1009.11 1008.99 1008.79 1008.51
1013.39 1013.51 1013.51 1013.71 1013.99 1014.23 1014.39 1014.55 1014.67 1014.87 1015.15 1015.51 1015.75 1015.95 1016.19 1016.35 1016.39 1016.27 1016.31 1016.23 1016.07 1015.87 1015.71 1015.59 1015.51 1015.47 1015.39 1015.27 1015.23 1015.15 1015.07 1015.03 1015.07 1015.23 1015.27 1015.15 1015.39 1015.47 1015.31 1015.27 1015.19 1015.23 1014.75 1014.23 1014.03 1014.47 1014.11 1014.07 1013.71 1013.71 1013.27 1013.03 1012.63 1012.43 1012.11 1011.87 1011.63 1011.39 1011.23 1011.03 1010.83 1010.55 1010.35 1010.23 1009.99 1009.75 1009.43 1009.19 1008.95 1008.79 1008.59 1008.35 1008.23 1007.87
1013.59 1013.63 1013.71 1013.75 1013.87 1014.03 1014.23 1014.35 1014.51 1014.79 1015.07 1015.31 1015.59 1015.75 1016.03 1016.27 1016.23 1016.19 1016.27 1016.19 1016.11 1016.11 1016.03 1015.95 1015.75 1015.63 1015.43 1015.27 1015.11 1014.99 1014.91 1014.83 1014.79 1014.83 1014.87 1014.95 1015.11 1015.35 1015.43 1015.35 1015.31 1015.39 1014.91 1014.23 1014.07 1014.43 1014.11 1013.99 1013.79 1013.63 1013.71 1013.59 1012.99 1012.27 1011.91 1011.59 1011.27 1011.11 1010.95 1010.83 1010.59 1010.15 1009.95 1009.71 1009.47 1009.19 1008.91 1008.67 1008.43 1008.23 1008.03 1007.79 1007.63 1007.35
1013.55 1013.71 1013.75 1013.71 1013.75 1013.91 1014.19 1014.51 1014.75 1014.99 1015.15 1015.31 1015.43 1015.59 1015.79 1015.87 1015.95 1016.19 1016.23 1016.15 1016.07 1016.11 1015.99 1015.83 1015.71 1015.55 1015.35 1015.23 1015.11 1014.99 1014.87 1014.75 1014.67 1014.71 1014.75 1014.75 1014.75 1014.87 1014.99 1015.03 1015.03 1014.95 1014.59 1014.23 1013.99 1014.19 1014.19 1013.87 1013.67 1013.39 1013.19 1013.15 1012.71 1012.47 1011.79 1011.39 1010.83 1010.79 1010.59 1010.51 1010.27 1009.79 1009.59 1009.35 1009.03 1008.67 1008.31 1008.07 1007.83 1007.59 1007.31 1007.11 1006.87 1006.75
1013.23 1013.31 1013.47 1013.63 1013.67 1013.91 1014.31 1014.59 1014.79 1014.99 1015.19 1015.35 1015.43 1015.51 1015.63 1015.87 1016.07 1016.11 1016.11 1016.07 1016.03 1015.99 1015.95 1015.87 1015.75 1015.59 1015.47 1015.39 1015.19 1015.03 1014.91 1014.83 1014.83 1014.75 1014.71 1014.63 1014.55 1014.47 1014.47 1014.55 1014.67 1014.67 1014.35 1013.83 1013.71 1013.79 1013.83 1013.67 1013.35 1013.27 1012.99 1012.91 1012.35 1012.11 1011.83 1011.31 1010.71 1010.35 1010.23 1009.99 1009.83 1009.47 1009.27 1008.99 1008.67 1008.27 1007.91 1007.55 1007.27 1006.91 1006.63 1006.39 1006.11 1005.83
1012.91 1012.95 1013.15 1013.31 1013.47 1013.91 1014.27 1014.55 1014.75 1014.99 1015.19 1015.31 1015.31 1015.43 1015.79 1015.99 1016.07 1016.07 1015.99 1015.95 1015.99 1015.99 1015.91 1015.83 1015.75 1015.63 1015.47 1015.39 1015.27 1015.15 1015.07 1014.91 1014.79 1014.67 1014.51 1014.31 1014.19 1014.11 1014.03 1013.95 1013.99 1014.03 1013.71 1013.43 1013.27 1013.27 1013.43 1013.35 1012.83 1012.95 1012.83 1012.55 1012.39 1011.91 1011.79 1011.51 1010.67 1010.03 1009.87 1009.63 1009.35 1009.03 1008.75 1008.59 1008.27 1007.79 1007.35 1007.07 1006.71 1006.31 1006.03 1005.75 1005.47 1005.03
1012.55 1012.83 1012.95 1013.07 1013.43 1013.91 1014.23 1014.55 1014.75 1014.91 1014.99 1014.99 1015.19 1015.55 1015.75 1015.87 1015.91 1015.95 1015.95 1015.95 1015.95 1015.91 1015.87 1015.79 1015.63 1015.47 1015.31 1015.23 1015.15 1015.07 1014.99 1014.87 1014.75 1014.59 1014.39 1014.23 1014.07 1013.95 1013.75 1013.63 1013.51 1013.43 1013.35 1013.23 1013.07 1012.95 1012.91 1012.91 1012.55 1012.27 1012.23 1012.19 1012.15 1011.99 1011.59 1010.79 1010.51 1010.11 1009.79 1009.07 1008.87 1008.55 1008.31 1008.19 1007.91 1007.39 1006.95 1006.67 1006.31 1005.91 1005.63 1005.11 1004.63 1004.27
1012.27 1012.39 1012.63 1013.03 1013.55 1013.95 1014.35 1014.59 1014.91 1015.03 1015.03 1015.19 1015.43 1015.55 1015.55 1015.63 1015.75 1015.75 1015.75 1015.75 1015.87 1015.87 1015.71 1015.55 1015.43 1015.31 1015.07 1014.95 1014.83 1014.75 1014.71 1014.59 1014.47 1014.35 1014.23 1014.03 1013.91 1013.75 1013.59 1013.43 1013.31 1013.19 1013.03 1012.83 1012.67 1012.51 1012.39 1012.35 1012.19 1011.83 1011.67 1011.55 1011.59 1011.23 1011.11 1010.67 1010.27 1009.75 1009.39 1009.11 1008.67 1008.23 1008.03 1007.71 1007.39 1007.15 1006.75 1006.39 1006.07 1005.67 1005.23 1004.75 1004.07 1003.63
1012.31 1012.55 1012.95 1013.35 1013.79 1014.23 1014.51 1014.79 1014.83 1014.75 1014.87 1015.11 1015.43 1015.39 1015.55 1015.59 1015.43 1015.47 1015.59 1015.67 1015.83 1015.75 1015.63 1015.55 1015.39 1015.11 1014.91 1014.79 1014.67 1014.59 1014.51 1014.55 1014.51 1014.39 1014.23 1014.07 1013.91 1013.75 1013.55 1013.35 1013.15 1012.95 1012.75 1012.51 1012.31 1012.11 1011.95 1011.79 1011.63 1011.39 1011.31 1011.11 1010.99 1010.87 1010.55 1010.35 1009.95 1009.39 1009.03 1008.91 1008.27 1007.67 1007.43 1007.43 1007.11 1006.79 1006.55 1006.03 1005.47 1004.99 1004.39 1004.07 1003.63 1003.15
1012.83 1013.15 1013.27 1013.47 1013.83 1014.15 1014.43 1014.43 1014.55 1014.59 1014.75 1014.95 1015.27 1015.35 1015.27 1015.23 1015.23 1015.27 1015.39 1015.39 1015.47 1015.51 1015.47 1015.43 1015.23 1014.95 1014.83 1014.79 1014.67 1014.55 1014.51 1014.51 1014.35 1014.23 1014.11 1014.03 1013.83 1013.59 1013.43 1013.39 1013.19 1012.87 1012.51 1012.27 1012.03 1011.79 1011.59 1011.35 1011.11 1010.99 1011.07 1010.79 1010.55 1010.43 1010.07 1009.95 1009.75 1009.31 1008.91 1008.55 1008.27 1008.07 1006.75 1006.59 1006.43 1006.15 1005.87 1005.47 1004.87 1004.31 1003.79 1003.31 1002.79 1002.43
1012.99 1013.35 1013.75 1013.95 1014.15 1014.35 1014.51 1014.55 1014.51 1014.51 1014.47 1014.47 1014.43 1014.51 1014.63 1014.71 1014.83 1014.91 1014.99 1015.19 1015.27 1015.19 1015.23 1015.23 1015.07 1014.95 1014.83 1014.71 1014.63 1014.51 1014.47 1014.39 1014.23 1014.03 1013.99 1013.87 1013.67 1013.47 1013.39 1013.39 1013.15 1012.79 1012.43 1012.11 1011.83 1011.51 1011.23 1011.03 1010.87 1010.67 1010.59 1010.51 1010.47 1009.95 1009.71 1009.67 1009.43 1009.03 1008.79 1008.35 1007.95 1007.39 1006.87 1006.51 1006.07 1005.67 1005.31 1004.87 1004.31 1003.75 1003.27 1002.83 1002.19 1001.67
1013.11 1013.43 1013.63 1013.75 1013.91 1013.99 1013.99 1014.19 1014.19 1014.27 1014.31 1014.31 1014.31 1014.27 1014.35 1014.47 1014.59 1014.75 1014.95 1015.15 1015.19 1015.07 1015.07 1015.03 1014.91 1014.75 1014.67 1014.63 1014.51 1014.43 1014.31 1014.19 1014.07 1013.91 1013.87 1013.67 1013.55 1013.31 1013.31 1013.27 1013.07 1012.83 1012.51 1012.11 1011.79 1011.43 1011.07 1010.79 1010.51 1010.35 1010.23 1010.11 1010.03 1009.87 1009.79 1009.55 1008.87 1008.55 1008.51 1008.07 1007.71 1007.23 1006.67 1006.23 1005.87 1005.35 1004.83 1004.51 1004.07 1003.39 1002.63 1002.07 1001.67 1001.19
1012.87 1013.15 1013.35 1013.51 1013.59 1013.79 1013.91 1014.03 1014.15 1014.19 1014.15 1014.11 1014.15 1014.15 1014.11 1014.23 1014.35 1014.43 1014.63 1014.71 1014.67 1014.59 1014.63 1014.55 1014.55 1014.59 1014.59 1014.47 1014.35 1014.19 1014.15 1014.11 1014.03 1013.83 1013.71 1013.55 1013.39 1013.39 1013.23 1013.11 1012.87 1012.63 1012.47 1012.19 1011.83 1011.35 1010.95 1010.63 1010.39 1010.19 1009.99 1009.79 1009.55 1009.47 1009.43 1009.43 1008.95 1008.43 1008.11 1007.75 1007.47 1007.03 1006.31 1005.91 1005.43 1005.03 1004.75 1004.47 1003.91 1002.95 1002.15 1001.39 1000.91 1000.67
1012.71 1013.07 1013.23 1013.47 1013.55 1013.63 1013.79 1013.91 1013.99 1013.91 1013.95 1013.91 1013.91 1013.87 1013.87 1013.87 1013.99 1014.15 1014.19 1014.23 1014.31 1014.27 1014.27 1014.31 1014.35 1014.31 1014.35 1014.31 1014.07 1013.99 1014.15 1014.15 1013.91 1013.71 1013.51 1013.39 1013.31 1013.23 1013.07 1012.99 1012.75 1012.51 1012.27 1011.99 1011.63 1011.19 1010.95 1010.67 1010.47 1010.27 1009.99 1009.79 1009.51 1008.79 1008.67 1008.59 1008.63 1008.31 1007.99 1007.71 1007.31 1006.91 1006.23 1005.67 1005.23 1004.71 1004.39 1003.87 1003.59 1002.99 1001.91 1001.19 1000.51 1000.03
1012.59 1012.75 1012.95 1013.19 1013.31 1013.43 1013.63 1013.63 1013.63 1013.59 1013.51 1013.51 1013.51 1013.39 1013.43 1013.51 1013.71 1013.91 1013.95 1014.03 1014.03 1014.03 1014.03 1014.03 1014.07 1014.19 1014.19 1014.07 1013.95 1014.03 1014.07 1013.95 1013.71 1013.55 1013.43 1013.35 1013.23 1013.03 1012.87 1012.79 1012.55 1012.27 1012.03 1011.83 1011.55 1011.11 1010.83 1010.59 1010.39 1010.35 1010.31 1010.11 1010.15 1009.67 1008.51 1008.11 1008.19 1008.11 1007.99 1007.63 1007.15 1006.75 1006.15 1005.59 1005.07 1004.67 1004.19 1003.67 1003.23 1002.91 1002.27 1001.43 1000.51 999.67
1012.35 1012.51 1012.63 1012.71 1012.87 1013.07 1013.23 1013.23 1013.15 1013.11 1013.19 1013.15 1012.99 1013.03 1013.23 1013.43 1013.51 1013.67 1013.79 1013.91 1013.87 1013.87 1013.83 1013.83 1013.91 1013.95 1013.95 1013.99 1014.07 1014.07 1013.91 1013.71 1013.63 1013.55 1013.43 1013.27 1013.11 1012.99 1012.87 1012.59 1012.39 1012.11 1011.95 1011.63 1011.35 1011.03 1010.75 1010.51 1010.23 1010.19 1010.19 1010.15 1010.19 1010.07 1009.19 1008.23 1008.03 1007.99 1007.91 1007.71 1007.23 1006.67 1006.19 1005.63 1005.07 1004.51 1003.99 1003.67 1002.99 1002.75 1002.47 1001.79 1000.71 999.71
1012.03 1012.03 1012.15 1012.31 1012.43 1012.59 1012.67 1012.75 1012.83 1012.91 1012.95 1012.91 1012.87 1012.87 1012.87 1013.03 1013.31 1013.43 1013.59 1013.79 1013.87 1013.79 1013.79 1013.87 1014.03 1014.07 1013.95 1013.83 1013.91 1013.87 1013.79 1013.71 1013.67 1013.51 1013.31 1013.15 1013.03 1012.91 1012.79 1012.59 1012.31 1012.07 1011.83 1011.55 1011.27 1010.95 1010.63 1010.43 1010.15 1009.87 1009.91 1009.95 1009.91 1009.63 1009.15 1008.31 1008.03 1007.51 1007.35 1007.43 1007.19 1006.71 1006.27 1005.87 1005.27 1004.67 1003.79 1003.31 1003.11 1002.55 1002.19 1001.55 1000.67 999.83
1011.67 1011.75 1011.91 1012.11 1012.19 1012.31 1012.43 1012.55 1012.59 1012.75 1012.79 1012.79 1012.83 1012.91 1013.03 1013.07 1013.23 1013.59 1013.67 1013.67 1013.67 1013.71 1013.79 1013.87 1013.95 1013.91 1013.83 1013.71 1013.75 1013.83 1013.79 1013.67 1013.51 1013.31 1013.19 1013.03 1012.99 1012.87 1012.63 1012.43 1012.23 1011.91 1011.79 1011.51 1011.15 1010.87 1010.51 1010.23 1009.95 1009.71 1009.55 1009.47 1009.39 1009.07 1008.95 1008.91 1008.27 1007.39 1006.99 1006.99 1006.99 1006.79 1006.35 1006.07 1005.51 1004.71 1004.15 1003.35 1002.67 1002.23 1001.75 1001.19 1000.35 999.63
1011.51 1011.59 1011.79 1011.95 1012.03 1012.07 1012.23 1012.39 1012.51 1012.59 1012.67 1012.71 1012.79 1012.83 1012.91 1013.11 1013.35 1013.43 1013.43 1013.51 1013.55 1013.63 1013.75 1013.79 1013.75 1013.79 1013.71 1013.67 1013.71 1013.75 1013.67 1013.47 1013.35 1013.23 1013.11 1013.03 1012.87 1012.67 1012.51 1012.31 1012.15 1011.91 1011.71 1011.43 1011.11 1010.75 1010.47 1010.15 1009.83 1009.51 1009.19 1008.87 1008.59 1008.43 1008.47 1008.39 1007.95 1007.35 1007.07 1006.83 1006.75 1006.75 1006.55 1006.19 1005.71 1005.07 1004.27 1003.67 1003.15 1002.43 1001.39 1000.51 999.91 999.27
1011.47 1011.59 1011.67 1011.71 1011.87 1011.99 1012.19 1012.27 1012.31 1012.43 1012.51 1012.63 1012.71 1012.75 1012.79 1012.95 1013.11 1013.27 1013.35 1013.47 1013.55 1013.59 1013.59 1013.55 1013.51 1013.51 1013.59 1013.67 1013.63 1013.59 1013.43 1013.27 1013.23 1013.15 1013.07 1012.95 1012.75 1012.59 1012.35 1012.19 1012.03 1011.75 1011.63 1011.31 1011.03 1010.71 1010.31 1009.87 1009.39 1008.87 1008.63 1008.43 1008.31 1008.27 1008.19 1008.15 1007.87 1007.35 1007.07 1006.75 1006.59 1006.47 1006.31 1006.03 1005.67 1005.27 1004.71 1003.91 1003.47 1002.95 1002.07 1001.11 1000.15 999.11
1011.31 1011.39 1011.43 1011.59 1011.79 1011.87 1011.95 1012.11 1012.19 1012.27 1012.43 1012.47 1012.55 1012.55 1012.55 1012.75 1012.95 1013.03 1013.07 1013.11 1013.23 1013.27 1013.35 1013.35 1013.27 1013.43 1013.55 1013.51 1013.43 1013.35 1013.27 1013.27 1013.23 1013.15 1012.99 1012.87 1012.75 1012.55 1012.35 1012.15 1011.91 1011.63 1011.47 1011.19 1010.83 1010.47 1009.95 1009.47 1009.07 1008.75 1008.47 1008.31 1008.23 1008.35 1008.59 1008.39 1008.07 1007.55 1007.15 1006.87 1006.55 1006.31 1006.11 1005.79 1005.43 1005.07 1004.67 1004.23 1003.83 1003.15 1002.19 1001.19 1000.63 999.99
1011.03 1011.15 1011.31 1011.43 1011.47 1011.59 1011.75 1011.87 1011.95 1012.03 1012.15 1012.23 1012.35 1012.43 1012.67 1012.91 1012.95 1013.03 1013.11 1013.19 1013.23 1013.31 1013.23 1013.11 1013.23 1013.31 1013.31 1013.27 1013.23 1013.19 1013.19 1013.15 1013.11 1013.03 1012.95 1012.79 1012.71 1012.51 1012.23 1011.95 1011.75 1011.51 1011.27 1010.95 1010.59 1010.23 1009.75 1009.31 1008.99 1008.71 1008.43 1008.35 1008.27 1008.39 1008.43 1008.15 1007.87 1007.63 1007.31 1007.07 1006.75 1006.39 1006.03 1005.63 1005.27 1004.91 1004.51 1004.19 1003.99 1003.75 1003.35 1002.75 1001.87 1000.83
1010.87 1010.99 1011.15 1011.23 1011.27 1011.39 1011.55 1011.71 1011.83 1011.95 1012.07 1012.15 1012.23 1012.43 1012.59 1012.79 1013.03 1013.07 1013.15 1013.15 1013.07 1013.03 1012.95 1012.99 1013.07 1013.11 1013.03 1013.03 1013.07 1013.03 1013.03 1013.03 1012.99 1012.95 1012.87 1012.71 1012.51 1012.27 1012.03 1011.79 1011.55 1011.27 1011.03 1010.79 1010.47 1010.03 1009.59 1009.27 1008.91 1008.75 1008.63 1008.39 1008.27 1008.23 1008.23 1008.03 1007.83 1007.63 1007.63 1007.47 1007.03 1006.59 1006.15 1005.59 1005.11 1004.75 1004.39 1004.15 1003.83 1003.47 1002.99 1002.55 1002.23 1001.79
1010.63 1010.75 1010.91 1011.03 1011.11 1011.23 1011.35 1011.51 1011.71 1011.87 1011.91 1011.95 1012.23 1012.39 1012.51 1012.59 1012.67 1012.71 1012.71 1012.75 1012.79 1012.79 1012.83 1012.95 1012.87 1012.75 1012.91 1012.95 1012.95 1012.95 1012.95 1012.91 1012.91 1012.83 1012.75 1012.51 1012.23 1012.07 1011.87 1011.67 1011.39 1011.19 1010.95 1010.67 1010.55 1010.03 1009.59 1009.35 1008.99 1008.71 1008.55 1008.39 1008.27 1008.23 1008.19 1008.03 1007.87 1007.83 1007.79 1007.63 1007.35 1006.95 1006.51 1005.91 1005.39 1004.91 1004.59 1004.15 1003.79 1003.43 1002.95 1002.43 1001.91 1001.39
Wind_Speed
3 2 2 3 2 2 2 3 2 2 3 5 5 6 6 5 4 2 1 1 1 3 1 0 2 1 1 3 3 4 5 6 6 5 6 6 6 9 13 14 14 14 14 14 14 14 14 14 15 14 14 15 15 15 14 14 14 14 14 15 15 13 13 13 13 12 12 12 12 12 13 14 15 15
3 3 2 2 2 3 3 4 3 2 3 5 5 5 5 6 5 4 3 3 2 2 2 1 1 2 1 3 4 4 5 7 7 4 4 5 6 10 13 13 14 15 14 14 14 15 15 15 15 16 15 15 16 14 14 15 15 14 14 15 15 16 17 15 13 13 12 12 13 13 14 14 14 14
4 3 3 3 3 3 4 3 3 3 3 5 5 4 5 4 5 5 4 2 3 3 2 2 1 1 2 3 3 3 4 6 7 6 6 6 9 13 10 13 12 12 12 13 14 14 15 15 16 16 17 18 18 17 17 17 17 16 16 15 15 17 17 16 16 14 13 15 15 15 14 14 14 15
4 4 4 4 4 4 5 4 4 3 3 4 5 4 5 5 5 5 4 4 6 4 3 3 3 4 3 2 3 5 5 7 10 7 7 8 11 9 7 11 14 14 13 12 12 14 15 15 16 17 18 18 18 18 18 18 18 18 18 17 16 17 16 16 16 16 16 15 15 16 16 14 14 15
5 6 5 5 4 4 4 4 4 3 4 4 5 5 5 5 4 4 4 4 5 4 3 3 3 2 1 3 3 5 5 5 5 7 7 7 7 7 7 7 11 14 14 14 14 14 14 16 17 18 18 18 18 18 19 19 18 18 18 18 17 17 17 17 17 17 17 17 16 16 15 14 14 16
5 5 6 6 6 5 5 5 5 5 4 5 5 4 5 5 5 4 4 5 4 5 2 3 3 2 2 5 4 5 5 5 4 4 5 6 7 7 7 6 7 12 14 14 14 14 14 16 17 18 18 18 19 19 20 20 20 20 19 18 18 19 19 18 17 17 18 18 18 16 16 17 17 17
5 5 6 6 4 4 5 5 6 5 5 5 5 5 4 5 5 4 5 4 4 4 5 4 3 4 4 5 6 4 5 5 5 5 4 5 5 5 7 7 6 10 14 16 16 15 16 16 17 18 18 17 18 19 20 21 20 20 19 19 19 19 20 20 19 18 18 18 18 17 18 18 18 17
5 6 5 4 4 4 5 5 5 5 5 6 6 5 5 6 6 5 5 5 5 5 5 4 5 4 4 6 6 5 4 5 5 5 6 4 5 5 5 6 6 8 13 14 15 15 16 16 17 17 17 17 17 18 19 19 19 18 19 19 20 20 21 21 20 20 20 19 19 20 20 20 20 19
6 5 5 5 5 5 5 4 5 5 6 6 6 6 6 6 6 4 5 5 4 5 6 4 3 4 4 6 6 4 5 6 5 4 5 6 6 5 5 4 6 9 13 15 15 15 16 17 17 18 18 18 18 19 20 20 19 19 19 20 19 19 20 20 20 20 20 20 20 20 20 18 18 20
6 6 6 6 6 6 6 6 5 5 6 5 5 5 5 5 4 5 5 4 4 4 5 5 5 3 6 6 6 4 5 6 6 6 6 4 4 4 5 5 5 5 5 4 6 9 12 14 16 15 16 17 18 18 18 19 19 20 20 20 19 19 19 19 19 20 20 20 21 22 21 20 20 20
8 8 7 7 6 7 7 6 6 6 5 5 5 5 4 3 4 4 4 5 5 6 6 6 7 7 6 5 7 6 5 6 6 6 5 5 5 4 5 7 6 6 6 7 9 9 8 10 9 12 14 15 17 18 19 18 18 17 18 18 19 19 19 20 21 21 21 21 22 21 21 20 20 17
7 8 7 7 7 7 7 7 7 6 6 5 5 4 3 4 5 6 6 5 6 6 6 7 8 5 6 5 5 4 3 4 4 4 5 7 7 7 5 6 7 3 3 5 5 6 8 9 12 14 14 14 15 16 16 17 18 19 19 19 20 20 20 20 20 20 21 21 20 20 22 22 21 19
5 5 6 7 7 7 8 10 8 7 6 5 4 3 4 4 5 5 5 6 6 6 6 6 5 5 6 7 6 6 6 7 7 5 3 5 5 6 6 5 4 5 5 5 4 4 5 7 7 6 6 7 8 9 11 10 15 17 17 18 18 19 19 19 19 20 20 20 20 20 20 20 20 20
6 6 6 6 11 12 11 10 10 10 10 8 6 6 6 6 6 6 7 7 7 6 6 6 6 7 8 7 5 6 5 4 3 4 4 4 4 3 4 5 4 4 4 4 5 5 4 5 6 5 6 5 5 6 6 6 9 12 15 16 16 16 17 18 18 19 19 18 17 19 19 20 21 21
8 6 6 5 7 8 8 9 12 11 10 9 9 10 11 10 9 8 8 8 6 5 5 5 6 7 8 7 4 4 4 3 4 3 2 3 4 4 5 7 5 3 2 2 3 6 5 7 9 7 6 6 7 8 9 13 15 15 16 17 18 18 18 18 18 15 15 17 18 18 19 19 20 21
6 6 5 4 3 4 5 4 4 6 8 9 11 11 12 14 15 11 7 6 4 5 6 6 7 6 7 6 4 5 4 5 3 3 3 4 5 6 5 3 5 3 4 8 8 10 6 6 6 7 7 8 8 9 12 15 15 15 17 17 18 19 18 15 13 15 15 16 17 18 19 20 20 21
6 5 5 4 3 3 9 7 7 7 7 10 11 11 13 12 9 7 8 9 8 4 5 5 7 7 5 6 7 4 4 2 4 4 5 4 4 3 5 6 6 7 4 7 9 9 8 5 6 7 7 7 8 10 12 15 15 16 18 16 14 13 12 12 13 14 17 18 19 19 19 19 20 21
7 6 7 5 5 4 5 6 7 6 5 5 5 5 4 3 4 8 10 10 10 7 6 6 8 7 3 7 7 7 5 4 6 5 7 4 4 5 7 7 7 7 5 8 7 8 9 6 6 8 8 7 8 8 10 14 14 14 12 11 11 11 12 14 16 17 18 18 18 18 18 18 18 19
7 6 7 7 7 7 7 7 7 6 6 4 3 2 3 4 4 3 3 3 4 5 6 7 8 8 8 7 7 6 5 6 5 4 4 5 5 6 4 4 6 7 7 8 4 7 8 5 5 6 6 6 6 5 6 8 8 9 11 13 14 15 16 17 17 17 18 19 20 20 20 20 20 20
7 7 8 7 7 8 8 10 12 9 4 3 2 3 3 3 2 3 4 6 8 8 7 7 8 5 2 2 2 2 2 3 3 4 3 3 4 4 6 8 6 6 6 6 6 6 6 4 7 6 4 4 5 6 6 8 12 13 13 14 15 16 16 17 18 20 21 21 22 23 23 23 23 22
7 7 7 8 8 8 7 9 10 8 5 3 3 3 3 2 3 5 4 8 11 10 10 9 9 9 11 10 8 8 8 6 4 2 3 7 5 5 7 7 5 7 5 3 4 4 7 2 3 5 4 4 5 6 6 5 8 13 14 14 15 15 17 18 20 20 21 22 23 24 24 23 22 25
7 8 13 10 7 7 6 7 8 8 6 5 5 3 2 3 3 4 3 4 2 2 2 3 4 4 5 8 10 10 10 9 4 3 6 7 4 6 6 7 6 7 6 5 3 5 4 4 3 5 4 4 2 4 4 7 9 11 11 13 15 16 18 18 19 20 22 23 23 22 22 22 22 18
6 6 8 8 6 5 5 9 9 10 8 4 3 3 2 3 4 2 2 3 4 5 6 5 6 5 7 6 5 5 9 10 7 5 7 7 6 7 7 7 6 6 5 2 4 7 6 8 4 5 8 8 4 4 6 7 7 7 7 8 10 15 17 18 20 21 21 21 21 21 22 23 21 15
4 4 3 3 9 9 10 10 10 8 7 4 3 3 3 3 5 1 2 3 3 3 3 4 4 5 4 5 4 5 5 6 4 6 6 6 5 5 5 5 4 5 3 2 5 5 4 3 6 3 5 7 7 5 7 8 7 7 7 8 9 13 15 15 14 17 18 18 20 21 22 22 22 14
6 5 5 4 8 11 8 7 8 9 6 4 3 3 3 4 1 1 1 3 5 3 3 4 4 5 5 5 4 4 4 5 4 2 2 2 0 1 2 4 5 6 6 6 6 3 4 3 8 5 6 4 6 7 7 9 9 8 8 8 10 10 8 9 9 11 14 18 18 20 20 20 22 18
6 6 6 5 8 10 10 10 10 9 8 6 3 4 5 4 2 2 2 3 3 4 3 5 5 5 5 6 6 6 6 5 3 2 3 3 3 4 5 5 5 5 6 6 8 4 5 6 7 7 7 6 9 8 9 9 10 9 7 7 8 9 8 9 10 11 11 11 11 13 16 20 22 23
7 5 6 7 11 11 11 11 10 10 9 6 5 7 6 5 6 4 3 3 2 4 5 4 5 5 6 5 5 5 4 3 4 6 6 7 5 4 4 3 5 6 7 7 7 7 5 6 6 7 9 8 10 9 8 9 10 9 8 8 8 9 9 8 10 11 11 11 11 18 18 19 21 24
6 6 6 7 12 13 13 12 12 10 9 6 7 6 6 7 5 2 2 2 2 3 4 5 6 6 5 2 3 3 2 3 4 5 5 5 5 6 7 7 7 6 7 7 7 7 6 7 9 8 8 8 8 9 10 10 10 9 11 10 9 9 9 7 10 11 11 11 12 12 11 12 12 13
6 8 10 13 14 13 12 11 9 6 6 5 6 8 7 6 2 2 2 4 4 5 5 6 6 5 4 4 4 3 3 4 5 5 6 6 6 6 7 7 6 5 5 6 6 7 8 8 9 9 8 6 7 8 8 10 10 11 10 11 11 9 9 10 9 9 11 12 12 12 12 13 14 13
9 11 12 13 12 11 10 7 4 4 5 9 11 9 7 4 4 4 3 3 4 6 6 6 6 6 4 4 4 3 3 5 6 5 5 6 7 6 6 6 7 6 7 7 8 8 9 9 9 9 8 7 7 9 9 9 10 10 10 10 12 11 7 6 8 9 11 12 13 13 13 12 14 14
7 8 8 7 8 7 9 6 6 6 7 6 6 5 5 5 5 5 6 6 6 6 6 6 7 6 4 2 2 4 5 6 6 5 5 6 6 5 6 5 7 8 8 7 8 8 9 9 9 7 7 8 7 8 9 7 10 11 10 10 10 11 12 11 10 10 10 11 12 13 13 13 13 12
6 6 8 9 6 5 4 3 3 5 4 4 4 5 5 5 5 6 8 7 5 6 5 6 3 2 2 3 5 4 4 5 6 5 4 4 6 6 5 4 7 7 8 8 7 8 8 7 7 7 7 7 8 10 8 7 10 10 10 9 9 10 10 11 11 11 11 12 13 13 13 12 13 11
6 6 5 5 5 5 5 4 4 3 3 5 5 5 4 5 5 5 5 5 6 6 5 6 4 3 3 5 4 3 4 5 6 5 5 5 6 6 4 6 7 8 9 9 7 7 7 7 6 7 7 6 7 8 8 10 11 9 8 9 9 11 10 10 10 12 12 12 13 14 15 13 11 11
6 6 6 6 6 5 5 5 4 5 5 5 5 5 6 6 6 5 3 6 7 5 5 4 2 4 5 4 4 3 4 6 6 6 5 5 5 4 6 7 7 7 6 7 7 8 8 7 7 6 4 5 6 7 8 9 11 10 9 9 9 11 11 10 11 12 12 11 14 16 15 14 12 10
7 6 6 5 5 5 5 5 5 5 5 6 6 6 6 7 6 4 5 5 5 4 4 3 4 3 2 4 3 4 5 6 6 6 6 5 6 6 6 6 7 7 6 7 8 8 6 7 7 7 5 5 7 6 9 11 8 9 8 8 9 10 12 11 12 12 13 12 11 14 15 14 14 12
6 6 6 6 6 5 5 5 5 6 7 5 7 8 7 6 4 6 7 6 4 4 3 2 1 1 2 4 4 5 5 4 6 6 7 6 6 6 6 6 6 6 6 7 8 8 7 8 7 6 5 7 7 11 11 8 11 6 8 9 9 10 11 12 12 12 12 12 11 11 13 15 16 15
6 6 6 6 6 6 7 6 7 7 6 5 2 3 5 5 6 6 4 4 4 3 2 1 1 2 3 2 3 3 4 5 6 7 7 6 6 6 6 6 6 7 7 8 7 8 7 8 7 4 5 6 8 9 11 8 6 9 7 8 10 9 11 12 13 13 11 11 12 10 11 14 15 15
6 6 6 5 6 5 5 5 4 3 2 1 4 3 4 4 6 6 4 3 2 3 5 3 1 0 0 1 4 7 6 6 6 6 5 6 6 6 6 6 7 7 7 7 7 8 7 7 7 6 3 5 8 9 10 9 8 7 5 5 8 10 9 12 13 13 14 11 10 11 11 13 13 13
5 4 5 5 4 5 2 2 2 3 3 2 3 3 3 5 5 5 5 5 3 3 3 2 1 2 3 3 4 4 6 7 5 5 6 6 6 5 6 7 7 8 7 7 7 7 7 7 7 6 6 6 6 8 7 8 9 10 9 8 5 8 10 11 12 13 13 13 13 12 10 10 14 18
4 4 3 4 3 2 2 2 3 3 3 2 1 2 2 3 5 5 5 4 3 2 1 1 1 2 3 3 4 6 6 4 3 5 6 6 5 6 7 7 7 7 6 7 8 7 7 7 8 7 7 7 8 6 6 7 7 7 6 6 7 7 9 9 11 12 13 11 12 13 14 13 12 10
3 3 3 3 2 4 6 5 4 3 2 1 2 3 3 4 6 4 3 4 3 2 1 2 1 3 4 4 5 5 4 3 4 5 5 5 6 7 9 8 7 6 6 7 7 7 8 8 9 15 12 7 5 2 3 6 8 8 8 7 9 13 13 12 10 10 11 12 11 12 13 14 15 13
6 5 3 3 5 6 5 4 4 3 5 5 4 2 2 3 4 5 3 1 0 1 2 3 3 2 3 6 6 2 2 3 4 5 5 6 7 8 8 6 7 7 6 7 8 8 9 8 8 8 8 7 3 4 6 6 7 8 7 7 8 10 13 14 14 13 11 10 12 13 13 11 8 9
5 6 5 4 5 5 5 4 2 2 3 2 1 2 3 5 3 3 3 3 3 3 4 4 3 4 6 5 1 1 3 4 4 6 7 7 7 7 7 7 7 7 7 7 7 8 8 8 7 8 8 5 1 0 5 7 6 6 7 9 10 9 9 11 13 15 15 14 14 12 11 12 13 14
6 6 6 6 6 5 4 5 4 3 3 4 3 3 6 6 4 4 5 5 3 2 2 4 6 7 2 1 1 3 3 4 6 6 7 7 6 6 6 7 6 7 7 7 8 8 8 8 8 7 7 6 2 3 6 6 6 5 7 8 9 10 11 10 9 11 11 11 14 18 19 18 14 14
6 6 7 7 6 5 5 4 4 5 5 4 5 6 5 4 3 1 0 1 2 3 3 2 3 1 3 1 3 3 4 5 6 6 6 5 6 7 6 6 7 7 7 7 7 9 8 8 8 7 4 3 3 2 4 5 5 5 8 9 10 10 10 11 12 13 12 10 12 19 19 19 19 19
Wind_Direction
153 131 136 173 199 212 161 140 148 146 137 144 144 146 155 163 149 203 262 282 235 300 20 355 303 358 226 256 237 218 226 233 221 194 198 208 215 226 227 227 227 227 229 231 235 239 241 243 245 246 246 246 247 248 247 248 251 256 264 271 274 270 268 269 273 274 270 264 261 261 263 267 271 273
169 156 154 159 187 221 168 176 185 181 172 155 149 147 147 144 167 182 182 259 227 265 304 198 266 319 268 222 245 225 234 243 245 228 220 221 226 231 231 225 225 227 230 232 232 234 236 240 243 245 247 244 245 243 245 248 250 250 251 254 259 265 272 272 270 269 268 264 264 264 263 262 263 264
169 173 190 197 198 184 189 201 210 214 175 185 157 158 155 160 163 177 170 197 282 197 228 278 257 252 269 240 243 266 260 255 241 235 234 237 239 244 250 252 246 236 230 234 237 234 234 234 237 240 243 247 250 251 251 252 255 254 250 247 250 261 267 272 274 270 265 268 270 269 265 260 259 261
184 196 205 209 201 191 167 172 187 205 187 165 160 164 167 178 181 181 183 200 249 253 207 229 270 272 270 225 226 252 257 250 244 238 236 239 245 249 251 256 257 259 256 243 236 237 238 238 239 241 242 244 245 249 253 254 254 256 256 255 254 257 260 262 267 269 268 266 267 270 268 261 256 260
191 198 208 216 216 190 181 187 192 186 188 160 159 165 162 185 197 180 192 203 249 292 248 218 227 263 302 294 246 259 257 253 252 251 246 247 249 248 248 249 254 256 255 250 244 240 240 243 245 247 248 248 248 248 251 255 254 255 257 259 259 257 256 257 259 263 267 267 266 265 265 261 257 261
198 191 202 209 208 198 187 188 189 201 182 174 171 184 184 200 211 198 181 220 218 253 311 300 289 270 235 259 240 239 249 275 279 260 245 242 238 245 248 251 253 251 252 251 250 250 251 251 252 252 250 249 249 249 251 253 255 256 257 256 258 262 264 261 258 260 263 265 267 263 263 263 263 263
212 196 188 196 193 180 184 189 194 187 182 180 180 196 192 205 214 204 193 178 220 237 256 242 255 242 242 227 251 242 243 254 253 262 254 238 239 238 242 250 254 248 249 251 251 250 253 253 253 255 255 250 246 246 248 250 252 253 254 256 257 259 261 263 264 263 262 265 267 266 267 266 264 263
187 193 196 209 191 182 181 195 200 199 184 180 187 192 191 190 197 194 186 190 200 219 232 253 225 242 244 258 249 242 242 243 252 243 249 243 242 240 236 237 251 262 254 249 247 247 247 250 253 252 252 252 252 252 253 254 255 255 252 250 252 255 258 261 263 265 267 265 266 269 269 268 269 268
192 195 195 206 202 195 193 207 200 198 193 195 193 203 197 189 185 178 179 196 196 209 235 263 253 249 257 254 262 239 254 271 264 254 245 247 245 250 251 251 251 252 252 249 246 247 253 255 256 257 256 252 249 250 252 253 253 254 256 256 254 253 255 258 261 264 267 269 269 266 266 265 265 266
196 200 207 206 200 199 201 210 206 193 195 195 198 205 204 201 197 192 202 198 206 219 243 249 279 258 250 271 262 248 225 248 268 273 262 263 257 258 276 264 255 254 249 243 244 252 256 261 262 260 258 260 259 256 254 253 253 253 255 258 261 262 263 262 263 264 265 266 268 269 268 267 267 266
195 191 189 194 195 200 205 204 197 185 170 166 171 179 169 171 177 198 206 208 213 217 235 249 244 260 262 245 272 267 231 234 236 251 273 276 263 245 243 268 265 254 250 243 243 243 241 249 257 260 254 249 251 255 256 256 256 258 261 263 262 261 260 259 260 261 263 264 264 267 269 267 263 258
196 190 188 190 193 193 191 186 195 180 181 176 177 186 185 194 202 210 215 218 218 224 229 237 252 251 271 283 265 291 303 293 289 251 235 254 271 272 245 235 259 270 254 270 275 273 280 278 274 274 275 271 262 254 254 257 258 258 257 256 256 256 256 256 257 259 260 263 266 266 265 264 263 259
212 207 200 197 196 193 194 193 186 192 181 172 178 195 192 210 211 219 219 219 224 236 240 258 264 274 276 269 281 288 276 258 250 255 245 254 251 263 286 282 249 239 263 269 262 266 258 270 267 271 275 274 273 267 254 254 253 254 255 255 254 254 255 255 255 257 260 262 261 263 268 271 271 267
215 216 211 202 194 194 195 191 186 182 176 173 175 187 194 200 203 213 219 227 231 233 242 250 257 266 263 268 260 256 250 247 283 300 286 273 275 296 280 284 272 266 268 276 282 276 278 274 279 280 279 276 271 273 265 253 256 260 259 259 255 250 250 253 255 256 258 262 264 263 262 262 263 263
209 211 203 192 195 189 192 190 190 180 178 184 196 198 195 193 194 205 214 227 223 224 237 243 247 252 264 266 260 254 264 272 271 264 279 281 295 289 294 294 297 286 303 300 288 282 265 274 280 281 272 270 272 270 267 263 260 259 261 262 263 264 262 256 256 259 258 256 257 259 260 260 260 261
197 198 198 195 194 191 191 176 146 152 177 195 213 221 220 216 212 210 205 216 226 222 233 246 247 256 258 277 273 276 285 270 259 259 273 265 269 270 266 255 271 265 320 298 292 281 278 272 275 278 269 266 261 260 259 261 260 259 260 261 262 264 271 281 274 262 258 258 257 259 260 261 261 262
197 188 183 193 174 166 151 149 166 177 199 215 221 225 232 237 238 241 243 228 226 223 230 250 262 250 257 264 263 255 261 200 250 261 264 257 236 235 255 261 276 283 282 291 284 284 283 278 271 266 258 255 259 262 263 263 264 264 265 271 278 278 271 268 273 277 278 277 274 270 267 266 265 264
190 186 189 178 164 174 171 182 187 197 201 208 223 234 234 230 232 225 228 235 242 239 234 235 253 261 227 248 258 262 250 232 255 258 262 254 264 263 256 258 261 267 267 260 276 284 284 271 262 262 260 248 253 254 250 255 267 283 292 286 277 274 274 275 277 279 278 279 280 280 278 274 271 269
183 183 180 176 172 185 197 201 193 196 210 212 223 224 229 224 232 239 252 237 218 215 221 228 239 254 253 255 262 265 247 235 242 216 217 229 241 253 273 286 261 269 254 255 247 266 274 261 257 257 260 259 268 285 297 297 290 286 290 294 294 293 293 293 292 292 292 291 289 286 281 276 271 266
179 174 178 178 185 195 204 211 206 206 186 179 199 220 233 250 263 259 243 255 261 256 236 219 229 250 314 319 301 260 194 220 245 258 273 291 275 278 283 277 286 276 266 241 242 263 269 252 269 295 308 317 305 296 296 295 295 294 293 294 294 293 291 290 288 287 287 286 284 282 279 275 271 267
180 185 185 192 198 205 212 216 211 205 164 183 215 225 248 285 305 297 299 276 268 277 280 284 292 285 282 284 257 239 245 225 227 245 301 277 269 279 279 276 274 268 278 264 234 261 291 309 311 298 278 284 284 284 280 282 287 290 290 289 288 287 284 284 285 285 285 284 283 281 279 277 275 272
183 188 194 191 195 197 212 204 180 178 177 201 214 213 241 284 294 291 339 343 354 11 17 16 359 318 278 258 256 252 249 250 229 182 248 262 260 261 257 270 269 286 293 293 22 351 281 314 304 300 279 273 235 273 284 283 282 283 284 282 280 280 279 280 281 282 281 281 281 280 277 276 274 274
186 200 205 194 173 185 189 178 184 190 185 191 177 174 192 258 266 259 335 319 332 345 349 341 342 324 313 299 281 271 261 257 250 215 237 263 253 258 265 277 302 302 301 293 35 338 312 328 320 345 322 307 283 261 262 269 272 277 280 284 284 278 278 278 278 278 278 277 278 279 279 277 277 275
209 207 198 185 156 161 175 190 198 192 172 158 152 150 189 228 254 200 300 287 308 332 311 286 280 278 284 295 300 298 296 285 271 263 250 255 267 273 284 288 278 268 270 277 339 298 283 263 287 284 262 287 307 298 292 283 273 275 282 286 281 280 279 278 276 274 275 276 277 277 276 275 273 274
190 192 185 177 177 178 168 143 137 135 139 132 136 152 195 210 194 123 267 294 314 289 280 282 291 304 313 305 287 273 279 276 284 328 359 24 93 194 244 266 264 263 261 263 258 259 265 258 285 291 283 256 268 287 282 285 285 281 280 277 278 278 279 278 285 287 284 280 279 276 274 271 269 266
189 191 178 171 194 176 140 138 139 143 147 154 162 193 190 167 167 227 248 264 267 273 291 313 315 313 312 306 302 296 295 314 348 359 309 269 251 236 223 229 249 267 271 259 252 250 272 287 271 279 281 286 285 281 291 290 288 288 276 267 267 275 277 288 289 287 287 288 288 284 282 281 278 274
191 174 170 176 178 155 147 145 149 150 154 153 202 190 170 183 212 238 261 258 302 317 310 302 298 290 281 288 304 310 314 328 336 327 316 312 303 289 266 240 213 231 260 281 286 280 256 258 271 267 274 277 285 289 286 289 292 293 283 275 276 278 283 286 287 288 290 289 286 284 283 276 272 270
169 160 168 170 159 150 150 155 156 158 165 192 201 174 190 203 210 226 268 312 291 287 288 282 271 265 253 252 294 292 269 283 287 289 287 283 285 289 293 291 291 281 274 267 268 264 254 258 273 267 252 259 272 284 287 281 278 280 286 290 285 285 284 279 283 288 289 291 292 291 289 290 283 280
159 160 150 136 142 147 150 147 139 153 201 221 181 187 200 210 205 209 222 252 269 260 250 251 255 252 247 239 250 247 270 305 316 311 304 298 294 288 282 279 276 276 271 273 272 274 271 265 266 270 266 251 259 271 272 276 285 289 292 298 295 288 293 291 284 285 290 288 286 286 286 287 287 282
121 125 120 123 124 125 137 140 154 179 203 212 210 208 206 213 213 212 217 244 242 249 250 252 252 249 255 273 262 263 303 317 295 292 287 293 295 294 293 302 298 286 280 277 278 278 277 273 264 255 256 266 261 268 271 282 286 287 293 291 288 291 266 256 280 284 288 291 290 291 287 283 279 281
98 108 123 138 143 138 150 153 175 199 193 186 203 205 204 210 220 226 223 222 230 246 249 254 255 259 265 280 318 306 300 292 287 275 276 284 280 291 291 296 295 297 287 283 280 276 273 268 258 250 263 272 273 264 271 275 283 289 293 292 297 294 301 301 295 292 292 289 292 289 289 285 282 277
120 116 112 115 115 126 143 210 202 204 206 204 197 203 199 217 226 236 242 249 241 247 249 253 255 278 286 297 279 279 284 280 281 284 288 282 290 288 298 308 291 288 294 293 289 282 277 270 269 267 253 257 274 286 290 282 280 285 288 286 286 286 293 298 297 297 296 301 299 296 291 290 288 289
109 110 125 129 139 156 169 184 206 222 224 236 225 226 218 223 231 237 227 241 255 257 249 245 243 255 270 264 272 286 300 288 281 289 294 282 279 294 291 275 279 289 295 300 302 296 290 284 275 266 262 265 260 267 283 293 285 285 286 289 294 293 295 292 297 301 309 306 300 298 297 291 288 287
141 154 157 168 163 173 175 185 206 223 228 240 242 233 231 228 229 225 210 228 238 229 190 184 191 234 241 273 272 291 293 293 295 286 282 288 296 294 289 290 285 285 288 289 298 299 303 300 305 300 282 268 265 255 259 262 275 286 286 295 296 297 298 303 304 307 308 305 303 303 301 302 299 294
157 164 170 173 180 181 182 194 208 225 227 233 236 241 228 225 227 209 195 190 180 166 170 191 216 248 248 257 289 318 300 295 284 299 301 294 296 286 287 292 294 295 293 301 302 298 301 304 310 308 308 306 307 281 216 228 261 269 287 291 299 300 305 309 311 312 311 306 306 301 305 305 303 305
170 172 169 177 190 186 189 207 210 222 234 232 230 230 230 227 195 178 190 195 155 168 178 188 213 245 289 304 317 309 284 277 303 305 303 301 300 297 299 292 285 292 300 296 291 294 303 304 299 288 303 315 325 318 321 213 220 269 295 301 304 306 307 311 312 310 309 309 308 306 310 313 310 310
166 175 182 186 188 182 196 199 205 217 232 247 207 193 195 167 186 180 178 171 177 181 186 188 235 269 297 313 298 283 297 317 304 300 297 294 296 301 306 304 307 304 303 292 288 296 300 299 287 278 297 310 313 309 293 314 250 234 249 296 309 311 315 317 317 313 313 310 308 317 312 308 305 305
176 176 171 155 164 179 191 199 211 221 211 163 111 119 128 138 121 145 155 122 111 71 52 48 334 300 333 12 341 318 308 298 295 292 288 304 315 312 304 305 306 301 294 292 298 295 295 292 286 284 275 288 306 302 308 311 313 300 280 306 310 317 322 323 320 319 318 318 317 318 312 301 300 305
166 157 148 165 179 174 179 222 190 156 146 97 69 85 127 126 131 103 104 107 96 85 67 53 337 318 325 318 300 295 292 289 298 300 314 313 305 302 310 311 304 299 303 303 302 300 303 306 295 285 269 278 282 285 284 294 297 296 305 315 316 327 332 328 320 319 320 324 327 316 295 281 280 285
160 138 147 151 189 181 169 143 128 153 141 149 167 157 139 120 114 132 133 139 131 147 163 208 244 299 308 302 293 296 284 275 285 311 314 305 300 308 308 299 294 293 304 302 307 304 306 302 299 289 283 266 257 256 266 272 270 277 291 313 348 352 327 325 322 323 323 329 327 323 322 324 323 323
156 156 194 170 160 154 150 156 150 137 142 150 129 123 111 137 144 148 143 150 169 172 231 286 319 305 293 293 290 269 276 313 324 321 310 306 309 309 300 302 300 301 306 305 301 302 297 286 283 293 295 283 284 321 330 323 321 322 328 331 341 338 328 325 322 326 324 329 332 329 327 331 328 326
177 186 192 174 165 171 156 165 164 142 136 137 139 146 148 111 130 147 145 141 7 215 208 250 269 260 278 280 267 286 16 340 331 313 307 307 307 303 300 303 302 305 312 306 305 295 285 286 299 310 308 311 339 9 324 309 311 318 322 330 330 331 332 324 324 331 332 336 340 337 333 325 317 324
179 182 185 182 161 153 150 152 159 151 166 158 158 157 102 114 118 129 175 200 220 227 233 241 241 265 259 246 285 58 24 345 322 308 301 300 297 293 299 301 298 296 300 298 294 289 293 303 308 312 313 319 286 28 307 304 306 313 330 337 334 331 326 327 332 336 335 339 346 343 340 335 336 335
185 182 177 169 161 163 167 168 180 182 162 178 168 142 142 151 163 184 185 193 203 240 257 249 244 218 212 78 77 12 357 313 304 297 296 290 285 294 302 300 304 310 311 307 307 303 305 312 311 319 324 320 309 337 318 319 326 338 345 331 330 336 337 338 338 338 338 341 343 343 341 340 332 321
184 172 163 170 170 172 174 176 174 176 181 182 132 148 149 159 168 188 209 232 245 250 257 246 209 175 114 121 52 344 305 301 294 292 283 286 308 309 302 304 311 314 312 309 313 311 316 319 318 329 333 334 333 319 322 328 325 355 350 344 341 339 340 342 343 346 342 336 344 344 342 344 341 336